Location: *
(35.8942°N, 23.3025°E)
Time: 23:37:20
(UTC+00:00)

SL-08 R/B - Pass Details

Date: 21 September 2021
Orbit: 674 x 738 km, 98.5° (Epoch: 22 October)

Event Time Altitude Azimuth Distance (km) Brightness Sun altitude
Exits shadow 01:49:31 52° 85° (E) 843 3.9 -29.2°
Maximum altitude 01:49:45 52° 73° (ENE) 837 3.9 -29.1°
Drops below altitude 10° 01:54:13 10° 358° (N) 2,113 6.0 -28.3°
Sets 01:56:29 0° 353° (N) 3,032 6.8 -27.9°
